South Paris, Maine, United States (04281)
Lat: 44.22N, Lon: 70.51W
Wx Zone: MEZ012
Local Info
Past Weather Observations for Sunday, September 25, 2016

NOTE: This archive is for the closest National Weather Service station to South Paris. Information may differ from the station used for current weather conditions.

Click here for Long-term Archive

Time Weather Temperature Dewpoint Humidity Pressure Winds Precip Visibility
23:56
Clear
37°F / 3°C 34°F / 1°C 87% 30.18 in
(1022 mb)
Calm - 10SM
22:56
Clear
45°F / 7°C 36°F / 2°C 71% 30.18 in
(1022 mb)
N 4.6 mph
(N 7 kph)
- 10SM
21:56
Clear
45°F / 7°C 36°F / 2°C 71% 30.18 in
(1022 mb)
Calm - 10SM
20:56
Clear
46°F / 8°C 36°F / 2°C 66% 30.18 in
(1022 mb)
NW 6.9 mph
(NW 11 kph)
- 10SM
19:56
Clear
52°F / 11°C 36°F / 2°C 54% 30.15 in
(1021 mb)
NNW 9.2 mph
(NNW 15 kph)
- 10SM
18:56
Partly Cloudy
52°F / 11°C 36°F / 2°C 54% 30.15 in
(1021 mb)
W 3.5 mph
(W 6 kph)
- 10SM
17:56
Partly Cloudy
54°F / 12°C 36°F / 2°C 51% 30.12 in
(1020 mb)
NNW 9.2 mph
(NNW 15 kph)
- 10SM
16:56
Mostly Cloudy
55°F / 13°C 36°F / 2°C 47% 30.09 in
(1019 mb)
NNW 10.4 mph
(NNW 17 kph)
- 10SM
15:56
Overcast
57°F / 14°C 36°F / 2°C 44% 30.09 in
(1019 mb)
NNW 12.7 mph
(NNW 20 kph)
- 10SM
14:56
Mostly Cloudy
57°F / 14°C 36°F / 2°C 44% 30.06 in
(1018 mb)
NW 15 mph
(NW 24 kph)
- 10SM
13:56
Mostly Cloudy
57°F / 14°C 36°F / 2°C 44% 30.06 in
(1018 mb)
NW 12.7 mph
(NW 20 kph)
- 10SM
12:56
Overcast
57°F / 14°C 34°F / 1°C 41% 30.06 in
(1018 mb)
NW 16.1 mph
(NW 26 kph)
- 10SM
11:56
Clear
57°F / 14°C 34°F / 1°C 41% 30.09 in
(1019 mb)
NW 15 mph
(NW 24 kph)
- 10SM
10:56
Clear
57°F / 14°C 34°F / 1°C 41% 30.06 in
(1018 mb)
NNW 15 mph
(NNW 24 kph)
- 10SM
09:56
Clear
55°F / 13°C 36°F / 2°C 47% 30.06 in
(1018 mb)
NW 19.6 mph
(NW 32 kph)
- 10SM
08:56
Clear
54°F / 12°C 36°F / 2°C 51% 30.09 in
(1019 mb)
NNW 18.4 mph
(NNW 30 kph)
- 10SM
07:56
Clear
50°F / 10°C 37°F / 3°C 62% 30.09 in
(1019 mb)
NW 8.1 mph
(NW 13 kph)
- 10SM
06:56
Clear
46°F / 8°C 37°F / 3°C 71% 30.09 in
(1019 mb)
NNW 4.6 mph
(NNW 7 kph)
- 10SM
05:56
Clear
43°F / 6°C 36°F / 2°C 76% 30.09 in
(1019 mb)
WNW 4.6 mph
(WNW 7 kph)
- 10SM
04:56
Clear
43°F / 6°C 34°F / 1°C 71% 30.09 in
(1019 mb)
NW 6.9 mph
(NW 11 kph)
- 10SM
03:56
Clear
45°F / 7°C 34°F / 1°C 66% 30.06 in
(1018 mb)
NW 11.5 mph
(NW 19 kph)
- 10SM
02:56
Clear
43°F / 6°C 34°F / 1°C 71% 30.09 in
(1019 mb)
NNW 8.1 mph
(NNW 13 kph)
- 10SM
01:56
Clear
45°F / 7°C 34°F / 1°C 66% 30.09 in
(1019 mb)
NNW 5.8 mph
(NNW 9 kph)
- 10SM
00:56
Clear
43°F / 6°C 34°F / 1°C 71% 30.09 in
(1019 mb)
Variable 3.5 mph
(Variable 6 kph)
- 10SM
Time Weather Temperature Dewpoint Humidity Pressure Winds Precip Visibility


Weather for websites

WeatherForYou.com, LLC is not responsible for any damages or problems caused by this service. Current weather conditions are obtained from the closest station including government and personal stations which may have varying degrees of accuracy. Weather forecasts are derived from the NOAA NDFD. Like all things, this site belongs to Jesus Christ... He just trusts us to maintain it. If you have any questions or comments email webmaster@weatherforyou.com

Copyright © 2016, WeatherForYou.com LLC. All rights reserved.